Regional Weather Roundup
Issued by NWS

Home | Current Version | Previous Version | Graphics & Text | Print | Product List | Glossary On
Versions: 1 2 3 4 5 6 7 8 9 10 11 12 13 14 15 16 17 18 19 20 21 22 23 24 25 26 27 28 29 30 31 32 33 34 35 36 37 38 39 40 41 42 43 44 45 46 47 48 49 50
000
ASUS43 KLMK 100610
RWRKY
KENTUCKY REGIONAL WEATHER ROUNDUP
NATIONAL WEATHER SERVICE LOUISVILLE KY
200 AM EDT THU JUL 10 2014

NOTE "FAIR" INDICATES FEW OR NO CLOUDS BELOW 12,000 FEET
WITH NO SIGNIFICANT WEATHER AND/OR OBSTRUCTIONS TO VISIBILITY.

KYZ001>023-026-027-061>063-070>075-100700-
WESTERN AND SOUTH CENTRAL KENTUCKY

CITY           SKY/WX    TMP DP  RH WIND       PRES   REMARKS
PADUCAH        MOCLDY    70  66  87 SW3       30.03R
HENDERSON      CLOUDY    73  63  68 N5        30.04R
OWENSBORO      MOCLDY    70  65  84 CALM      30.03R
HOPKINSVILLE   CLEAR     68  64  87 SW1       30.03S
BOWLING GREEN  CLEAR     66  62  87 E3        30.03
GLASGOW        CLEAR     63  63 100 CALM      30.03S
$$

KYZ024-025-028>034-038-045-046-053-100700-
NORTH CENTRAL KENTUCKY

CITY           SKY/WX    TMP DP  RH WIND       PRES   REMARKS
LOUISVILLE/SDF MOCLDY    75  62  64 N3        30.02S
LOUISVILLE/LOU MOCLDY    72  63  73 NW3       30.03S
FORT KNOX      MOCLDY    66  66  97 CALM      30.02F
$$

KYZ035>037-039>044-047>052-055>060-089>105-100700-
NORTHEAST KENTUCKY

CITY           SKY/WX    TMP DP  RH WIND       PRES   REMARKS
LEXINGTON      CLEAR     64  59  83 CALM      30.05S
COVINGTON      PTCLDY    69  58  67 N3        30.04S
FRANKFORT      CLEAR     65  61  87 CALM      30.03
$$

KYZ054-064>069-076>088-106>120-100700-
SOUTHEAST KENTUCKY

CITY           SKY/WX    TMP DP  RH WIND       PRES   REMARKS
JACKSON        CLEAR     70  61  73 CALM      30.06S
LONDON         CLEAR     66  62  87 CALM      30.06F
SOMERSET       CLEAR     63  63 100 CALM      30.06S
MIDDLESBORO    CLOUDY    67  66  96 CALM      30.07F
MONTICELLO     CLEAR     62  62 100 CALM      30.07S FOG
$$




USA.gov is the U.S. government's official web portal to all federal, state and local government web resources and services.